TimeEST,TemperatureF,Dew PointF,Humidity,Sea Level PressureIn,VisibilityMPH,Wind Direction,Wind SpeedMPH,Gust SpeedMPH,PrecipitationIn,Events,Conditions,WindDirDegrees,DateUTC
12:10 AM,50.0,50.0,100,29.98,0.5,Calm,Calm,-,N/A,,Overcast,0,2012-12-10 05:10:00
12:30 AM,50.0,50.0,100,29.97,0.5,Calm,Calm,-,N/A,,Overcast,0,2012-12-10 05:30:00
12:50 AM,50.2,50.2,100,29.96,0.5,Calm,Calm,-,N/A,,Overcast,0,2012-12-10 05:50:00
1:15 AM,50.4,50.4,100,29.94,0.5,Calm,Calm,-,N/A,,Overcast,0,2012-12-10 06:15:00
1:35 AM,50.4,50.4,100,29.94,0.5,Calm,Calm,-,N/A,,Overcast,0,2012-12-10 06:35:00
1:55 AM,50.4,50.4,100,29.93,0.5,Calm,Calm,-,N/A,,Overcast,0,2012-12-10 06:55:00
2:15 AM,50.5,50.5,100,29.92,0.5,Calm,Calm,-,N/A,,Overcast,0,2012-12-10 07:15:00
2:40 AM,50.5,50.5,100,29.92,0.5,Calm,Calm,-,N/A,,Overcast,0,2012-12-10 07:40:00
3:00 AM,50.7,50.7,100,29.91,0.5,Calm,Calm,-,N/A,,Overcast,0,2012-12-10 08:00:00
3:20 AM,50.4,50.4,100,29.90,0.8,Calm,Calm,-,N/A,,Overcast,0,2012-12-10 08:20:00
3:40 AM,50.9,50.9,100,29.88,1.0,Calm,Calm,-,N/A,,Overcast,0,2012-12-10 08:40:00
4:05 AM,50.9,50.9,100,29.87,0.8,Calm,Calm,-,N/A,,Overcast,0,2012-12-10 09:05:00
4:25 AM,50.9,50.9,100,29.86,1.0,Calm,Calm,-,N/A,,Overcast,0,2012-12-10 09:25:00
4:45 AM,50.9,50.9,100,29.86,1.0,Calm,Calm,-,N/A,,Overcast,0,2012-12-10 09:45:00
5:10 AM,50.9,50.9,100,29.84,0.8,Calm,Calm,-,N/A,,Overcast,0,2012-12-10 10:10:00
5:30 AM,50.9,50.9,100,29.84,0.5,Calm,Calm,-,N/A,,Overcast,0,2012-12-10 10:30:00
5:50 AM,51.8,51.8,100,29.83,0.5,Calm,Calm,-,N/A,,Overcast,0,2012-12-10 10:50:00
6:10 AM,52.3,52.3,100,29.83,0.8,Calm,Calm,-,N/A,,Overcast,0,2012-12-10 11:10:00
6:35 AM,52.7,52.7,100,29.82,0.8,Calm,Calm,-,N/A,,Overcast,0,2012-12-10 11:35:00
6:55 AM,52.7,52.7,100,29.81,0.8,Calm,Calm,-,N/A,,Overcast,0,2012-12-10 11:55:00
7:15 AM,52.9,52.9,100,29.80,0.8,SSW,3.5,-,N/A,,Overcast,200,2012-12-10 12:15:00
7:35 AM,53.2,53.2,100,29.79,0.5,SE,3.5,-,N/A,,Overcast,140,2012-12-10 12:35:00
8:00 AM,54.3,54.3,100,29.79,0.8,Calm,Calm,-,N/A,,Overcast,0,2012-12-10 13:00:00
8:20 AM,55.4,55.4,100,29.79,1.2,SW,3.5,-,N/A,,Overcast,230,2012-12-10 13:20:00
9:00 AM,56.3,56.3,100,29.78,2.0,South,5.8,-,N/A,,Overcast,180,2012-12-10 14:00:00
9:25 AM,57.2,57.2,100,29.77,1.0,South,4.6,-,N/A,,Overcast,190,2012-12-10 14:25:00
9:45 AM,57.4,57.4,100,29.78,1.2,SW,3.5,-,N/A,,Overcast,230,2012-12-10 14:45:00
10:05 AM,57.4,57.4,100,29.77,1.5,SSW,3.5,-,N/A,,Overcast,200,2012-12-10 15:05:00
10:25 AM,57.6,57.6,100,29.77,2.0,South,3.5,-,N/A,,Overcast,170,2012-12-10 15:25:00
10:50 AM,58.1,58.1,100,29.76,2.5,Calm,Calm,-,N/A,,Overcast,0,2012-12-10 15:50:00
11:30 AM,58.6,58.6,100,29.73,1.8,SSW,3.5,-,N/A,,Overcast,200,2012-12-10 16:30:00
11:50 AM,59.0,59.0,100,29.71,1.2,South,3.5,-,N/A,,Overcast,190,2012-12-10 16:50:00
12:15 PM,59.2,59.2,100,29.69,1.2,Calm,Calm,-,N/A,,Overcast,0,2012-12-10 17:15:00
12:35 PM,59.5,59.5,100,29.67,1.2,SSE,3.5,-,N/A,,Overcast,160,2012-12-10 17:35:00
12:55 PM,60.3,60.3,100,29.66,2.5,Calm,Calm,-,N/A,,Overcast,0,2012-12-10 17:55:00
1:15 PM,61.0,61.0,100,29.66,4.0,SW,5.8,-,N/A,,Overcast,230,2012-12-10 18:15:00
1:35 PM,61.3,61.3,100,29.65,4.0,SSW,3.5,-,N/A,,Overcast,210,2012-12-10 18:35:00
2:00 PM,61.9,61.9,100,29.64,5.0,SW,4.6,-,N/A,,Overcast,220,2012-12-10 19:00:00
2:20 PM,63.0,62.6,99,29.62,5.0,SSW,3.5,-,N/A,,Overcast,210,2012-12-10 19:20:00
2:40 PM,63.7,62.2,95,29.62,7.0,Calm,Calm,-,N/A,,Overcast,0,2012-12-10 19:40:00
3:00 PM,63.7,62.2,95,29.62,5.0,Calm,Calm,-,N/A,,Overcast,0,2012-12-10 20:00:00
3:25 PM,64.0,62.4,94,29.61,7.0,Calm,Calm,-,N/A,,Overcast,0,2012-12-10 20:25:00
3:45 PM,64.2,62.2,93,29.61,5.0,Calm,Calm,-,N/A,,Overcast,0,2012-12-10 20:45:00
4:05 PM,63.5,62.6,97,29.61,5.0,Calm,Calm,-,N/A,,Overcast,0,2012-12-10 21:05:00
4:25 PM,62.6,62.6,100,29.61,3.0,Calm,Calm,-,N/A,,Overcast,0,2012-12-10 21:25:00
4:50 PM,61.7,61.7,100,29.61,3.0,Calm,Calm,-,N/A,,Overcast,0,2012-12-10 21:50:00
5:10 PM,61.2,61.2,100,29.60,1.8,Calm,Calm,-,N/A,,Overcast,0,2012-12-10 22:10:00
6:15 PM,64.0,60.4,88,29.59,10.0,South,4.6,-,N/A,,Mostly Cloudy,180,2012-12-10 23:15:00
6:35 PM,64.4,60.3,86,29.60,10.0,SW,3.5,-,N/A,,Mostly Cloudy,220,2012-12-10 23:35:00
6:55 PM,63.7,60.3,89,29.60,10.0,SSW,3.5,-,N/A,,Scattered Clouds,210,2012-12-10 23:55:00
7:15 PM,63.5,59.9,88,29.60,10.0,Calm,Calm,-,N/A,,Scattered Clouds,0,2012-12-11 00:15:00
7:40 PM,63.5,59.9,88,29.60,10.0,South,4.6,-,N/A,,Scattered Clouds,170,2012-12-11 00:40:00
8:00 PM,63.5,59.9,88,29.60,10.0,Calm,Calm,-,N/A,,Scattered Clouds,0,2012-12-11 01:00:00
8:20 PM,63.1,60.1,90,29.59,10.0,South,3.5,-,N/A,,Mostly Cloudy,180,2012-12-11 01:20:00
9:05 PM,62.8,60.8,93,29.60,10.0,SW,5.8,-,N/A,,Mostly Cloudy,220,2012-12-11 02:05:00
9:25 PM,63.0,60.8,93,29.61,10.0,SW,4.6,-,N/A,,Overcast,220,2012-12-11 02:25:00
9:45 PM,63.0,60.8,93,29.60,10.0,SSW,4.6,-,N/A,,Overcast,200,2012-12-11 02:45:00
10:05 PM,63.3,60.8,91,29.60,10.0,South,4.6,-,N/A,,Overcast,180,2012-12-11 03:05:00
10:30 PM,62.6,60.6,93,29.60,10.0,Calm,Calm,-,N/A,,Mostly Cloudy,0,2012-12-11 03:30:00
10:50 PM,62.8,60.8,93,29.60,10.0,SSW,3.5,-,N/A,,Scattered Clouds,200,2012-12-11 03:50:00
11:10 PM,62.6,60.4,93,29.61,10.0,Calm,Calm,-,N/A,,Scattered Clouds,0,2012-12-11 04:10:00
11:35 PM,62.4,60.4,93,29.62,10.0,Calm,Calm,-,N/A,,Mostly Cloudy,0,2012-12-11 04:35:00
11:55 PM,62.6,60.4,93,29.63,10.0,Calm,Calm,-,N/A,,Overcast,0,2012-12-11 04:55:00